Time,TemperatureF,DewpointF,PressureIn,WindDirection,WindDirectionDegrees,WindSpeedMPH,WindSpeedGustMPH,Humidity,HourlyPrecipIn,Conditions,Clouds,dailyrainin,SoftwareType,DateUTC
2013-06-27 00:02:00,84.0,60.0,28.31,SSE,158,0.0,3.0,44,0.00,,,0.00,,2013-06-27 05:02:00,
2013-06-27 00:32:00,82.0,60.0,28.31,South,174,0.0,0.0,48,0.00,,,0.00,,2013-06-27 05:32:00,
2013-06-27 00:42:00,82.0,60.0,28.31,South,174,0.0,0.0,48,0.00,,,0.00,,2013-06-27 05:42:00,
2013-06-27 00:53:00,81.0,61.0,28.31,South,175,0.0,0.0,51,0.00,,,0.00,,2013-06-27 05:53:00,
2013-06-27 01:01:00,81.0,61.0,28.31,South,175,0.0,0.0,51,0.00,,,0.00,,2013-06-27 06:01:00,
2013-06-27 01:12:00,81.0,62.0,28.31,South,173,0.0,0.0,53,0.00,,,0.00,,2013-06-27 06:12:00,
2013-06-27 01:22:00,80.0,62.0,28.31,South,173,0.0,0.0,55,0.00,,,0.00,,2013-06-27 06:22:00,
2013-06-27 01:34:00,80.0,62.0,28.31,South,173,0.0,0.0,55,0.00,,,0.00,,2013-06-27 06:34:00,
2013-06-27 01:43:00,80.0,64.0,28.31,South,173,0.0,0.0,58,0.00,,,0.00,,2013-06-27 06:43:00,
2013-06-27 01:53:00,80.0,64.0,28.31,South,173,0.0,0.0,59,0.00,,,0.00,,2013-06-27 06:53:00,
2013-06-27 02:02:00,79.0,64.0,28.31,South,173,0.0,0.0,60,0.00,,,0.00,,2013-06-27 07:02:00,
2013-06-27 02:12:00,79.0,64.0,28.31,South,173,0.0,0.0,60,0.00,,,0.00,,2013-06-27 07:12:00,
2013-06-27 02:22:00,79.0,65.0,28.31,SE,136,0.0,0.0,63,0.00,,,0.00,,2013-06-27 07:22:00,
2013-06-27 02:33:00,79.0,65.0,28.31,SE,136,0.0,0.0,63,0.00,,,0.00,,2013-06-27 07:33:00,
2013-06-27 02:42:00,79.0,67.0,28.31,South,173,0.0,3.0,67,0.00,,,0.00,,2013-06-27 07:42:00,
2013-06-27 02:43:00,80.0,69.0,28.31,WSW,240,2.0,3.0,69,0.00,,,0.00,,2013-06-27 07:43:00,
2013-06-27 02:52:00,79.0,68.0,28.31,SSE,163,0.0,3.0,69,0.00,,,0.00,,2013-06-27 07:52:00,
2013-06-27 03:01:00,80.0,69.0,28.31,WSW,240,2.0,3.0,69,0.00,,,0.00,,2013-06-27 08:01:00,
2013-06-27 03:11:00,80.0,69.0,28.31,WSW,240,2.0,3.0,69,0.00,,,0.00,,2013-06-27 08:11:00,
2013-06-27 03:22:00,80.0,69.0,28.31,WSW,240,2.0,3.0,69,0.00,,,0.00,,2013-06-27 08:22:00,
2013-06-27 03:34:00,80.0,69.0,28.31,WSW,240,2.0,3.0,69,0.00,,,0.00,,2013-06-27 08:34:00,
2013-06-27 04:22:00,78.0,69.0,28.31,SE,139,0.0,3.0,73,0.00,,,0.00,,2013-06-27 09:22:00,
2013-06-27 04:34:00,78.0,69.0,28.31,SSW,195,0.0,3.0,74,0.00,,,0.00,,2013-06-27 09:34:00,
2013-06-27 04:43:00,78.0,69.0,28.31,SSW,195,0.0,3.0,74,0.00,,,0.00,,2013-06-27 09:43:00,
2013-06-27 04:53:00,78.0,69.0,28.31,SSW,195,0.0,3.0,74,0.00,,,0.00,,2013-06-27 09:53:00,
2013-06-27 05:01:00,77.0,68.0,28.31,SSW,192,0.0,3.0,75,0.00,,,0.00,,2013-06-27 10:01:00,
2013-06-27 05:11:00,77.0,69.0,28.31,SSW,192,0.0,3.0,76,0.00,,,0.00,,2013-06-27 10:11:00,
2013-06-27 05:22:00,76.0,68.0,28.31,South,172,0.0,0.0,77,0.00,,,0.00,,2013-06-27 10:22:00,
2013-06-27 05:32:00,76.0,68.0,28.31,South,172,0.0,0.0,77,0.00,,,0.00,,2013-06-27 10:32:00,
2013-06-27 05:43:00,76.0,69.0,28.31,South,172,0.0,0.0,78,0.00,,,0.00,,2013-06-27 10:43:00,
2013-06-27 05:54:00,75.0,68.0,28.31,South,172,0.0,0.0,78,0.00,,,0.00,,2013-06-27 10:54:00,
2013-06-27 06:01:00,75.0,68.0,28.31,South,172,0.0,0.0,79,0.00,,,0.00,,2013-06-27 11:01:00,
2013-06-27 06:11:00,75.0,68.0,28.31,South,172,0.0,0.0,80,0.00,,,0.00,,2013-06-27 11:11:00,
2013-06-27 06:21:00,75.0,68.0,28.31,South,172,0.0,0.0,80,0.00,,,0.00,,2013-06-27 11:21:00,
2013-06-27 06:33:00,74.0,68.0,28.31,South,172,0.0,0.0,81,0.00,,,0.00,,2013-06-27 11:33:00,
2013-06-27 06:43:00,74.0,68.0,28.31,South,172,0.0,0.0,82,0.00,,,0.00,,2013-06-27 11:43:00,
2013-06-27 06:52:00,74.0,68.0,28.31,South,172,0.0,0.0,82,0.00,,,0.00,,2013-06-27 11:52:00,
2013-06-27 07:01:00,74.0,68.0,28.31,South,172,0.0,0.0,82,0.00,,,0.00,,2013-06-27 12:01:00,
2013-06-27 07:11:00,75.0,70.0,28.34,South,172,0.0,0.0,84,0.00,,,0.00,,2013-06-27 12:11:00,
2013-06-27 07:22:00,75.0,70.0,28.34,South,172,0.0,0.0,85,0.00,,,0.00,,2013-06-27 12:22:00,
2013-06-27 07:34:00,75.0,70.0,28.34,South,172,0.0,0.0,85,0.00,,,0.00,,2013-06-27 12:34:00,
2013-06-27 07:42:00,75.0,70.0,28.34,South,172,0.0,0.0,85,0.00,,,0.00,,2013-06-27 12:42:00,
2013-06-27 08:01:00,78.0,73.0,28.34,South,184,0.0,3.0,85,0.00,,,0.00,,2013-06-27 13:01:00,
2013-06-27 08:11:00,80.0,74.0,28.34,SSE,152,0.0,3.0,82,0.00,,,0.00,,2013-06-27 13:11:00,
2013-06-27 08:22:00,82.0,75.0,28.34,ESE,119,0.0,0.0,79,0.00,,,0.00,,2013-06-27 13:22:00,
2013-06-27 08:34:00,83.0,74.0,28.34,SSE,166,0.0,3.0,75,0.00,,,0.00,,2013-06-27 13:34:00,
2013-06-27 08:43:00,85.0,75.0,28.34,South,173,0.0,3.0,72,0.00,,,0.00,,2013-06-27 13:43:00,
2013-06-27 08:52:00,85.0,75.0,28.34,South,173,0.0,3.0,72,0.00,,,0.00,,2013-06-27 13:52:00,
2013-06-27 09:01:00,85.0,75.0,28.34,South,173,0.0,3.0,72,0.00,,,0.00,,2013-06-27 14:01:00,
2013-06-27 09:11:00,88.0,73.0,28.34,WSW,237,0.0,3.0,61,0.00,,,0.00,,2013-06-27 14:11:00,
2013-06-27 09:22:00,89.0,73.0,28.34,SSE,156,2.0,2.0,59,0.00,,,0.00,,2013-06-27 14:22:00,
2013-06-27 09:33:00,90.0,72.0,28.34,South,186,0.0,3.0,55,0.00,,,0.00,,2013-06-27 14:33:00,
2013-06-27 09:43:00,90.0,69.0,28.37,South,174,0.0,5.0,50,0.00,,,0.00,,2013-06-27 14:43:00,
2013-06-27 09:52:00,91.0,69.0,28.37,WSW,253,3.0,5.0,49,0.00,,,0.00,,2013-06-27 14:52:00,
2013-06-27 10:11:00,91.0,67.0,28.37,West,271,3.0,5.0,46,0.00,,,0.00,,2013-06-27 15:11:00,
2013-06-27 10:22:00,91.0,68.0,28.37,WSW,245,3.0,4.0,47,0.00,,,0.00,,2013-06-27 15:22:00,
2013-06-27 10:33:00,91.0,67.0,28.37,SSW,198,0.0,4.0,46,0.00,,,0.00,,2013-06-27 15:33:00,
2013-06-27 10:42:00,92.0,68.0,28.37,WSW,251,0.0,4.0,45,0.00,,,0.00,,2013-06-27 15:42:00,
2013-06-27 10:52:00,92.0,68.0,28.37,WSW,251,0.0,4.0,45,0.00,,,0.00,,2013-06-27 15:52:00,
2013-06-27 11:02:00,92.0,68.0,28.37,WSW,251,0.0,4.0,45,0.00,,,0.00,,2013-06-27 16:02:00,
2013-06-27 11:11:00,95.0,67.0,28.34,North,9,0.0,4.0,40,0.00,,,0.00,,2013-06-27 16:11:00,
2013-06-27 11:23:00,96.0,68.0,28.34,North,0,0.0,0.0,40,0.00,,,0.00,,2013-06-27 16:23:00,
2013-06-27 11:34:00,97.0,68.0,28.34,SSE,156,3.0,3.0,39,0.00,,,0.00,,2013-06-27 16:34:00,
2013-06-27 11:43:00,97.0,68.0,28.34,SSE,156,3.0,3.0,39,0.00,,,0.00,,2013-06-27 16:43:00,
2013-06-27 11:53:00,97.0,68.0,28.34,SSE,156,3.0,3.0,39,0.00,,,0.00,,2013-06-27 16:53:00,
2013-06-27 12:01:00,99.0,67.0,28.34,SSE,161,0.0,5.0,36,0.00,,,0.00,,2013-06-27 17:01:00,
2013-06-27 12:11:00,99.0,67.0,28.34,SSE,161,0.0,5.0,36,0.00,,,0.00,,2013-06-27 17:11:00,
2013-06-27 12:33:00,99.0,66.0,28.34,North,3,0.0,3.0,34,0.00,,,0.00,,2013-06-27 17:33:00,
2013-06-27 12:43:00,99.0,66.0,28.34,North,3,0.0,3.0,34,0.00,,,0.00,,2013-06-27 17:43:00,
2013-06-27 12:53:00,101.0,67.0,28.34,North,0,3.0,5.0,34,0.00,,,0.00,,2013-06-27 17:53:00,
2013-06-27 13:01:00,102.0,67.0,28.34,East,98,2.0,7.0,33,0.00,,,0.00,,2013-06-27 18:01:00,
2013-06-27 13:11:00,102.0,67.0,28.34,East,98,2.0,7.0,33,0.00,,,0.00,,2013-06-27 18:11:00,
2013-06-27 13:32:00,102.0,65.0,28.34,NE,38,2.0,3.0,30,0.00,,,0.00,,2013-06-27 18:32:00,
2013-06-27 13:52:00,102.0,65.0,28.34,NE,38,2.0,3.0,30,0.00,,,0.00,,2013-06-27 18:52:00,
2013-06-27 17:22:00,98.0,67.0,28.22,NNE,29,5.0,9.0,37,0.00,,,0.00,,2013-06-27 22:22:00,
2013-06-27 17:33:00,98.0,67.0,28.22,NNE,29,5.0,9.0,37,0.00,,,0.00,,2013-06-27 22:33:00,
2013-06-27 17:46:00,92.0,67.0,28.28,North,0,3.0,13.0,44,0.00,,,0.00,,2013-06-27 22:46:00,
2013-06-27 17:54:00,92.0,67.0,28.28,North,0,3.0,13.0,44,0.00,,,0.00,,2013-06-27 22:54:00,
2013-06-27 19:13:00,85.0,70.0,28.25,SSW,210,3.0,6.0,60,0.00,,,0.00,,2013-06-28 00:13:00,
2013-06-27 19:44:00,83.0,69.0,28.31,NNW,338,5.0,5.0,62,0.00,,,0.00,,2013-06-28 00:44:00,
2013-06-27 19:53:00,82.0,69.0,28.31,NNE,25,5.0,6.0,64,0.00,,,0.00,,2013-06-28 00:53:00,
2013-06-27 20:13:00,82.0,69.0,28.34,NNE,26,3.0,8.0,65,0.00,,,0.00,,2013-06-28 01:13:00,
2013-06-27 20:23:00,80.0,68.0,28.34,North,5,3.0,3.0,66,0.00,,,0.00,,2013-06-28 01:23:00,
2013-06-27 20:35:00,80.0,68.0,28.34,North,8,0.0,5.0,66,0.00,,,0.00,,2013-06-28 01:35:00,
2013-06-27 20:45:00,79.0,67.0,28.34,North,353,0.0,5.0,66,0.00,,,0.00,,2013-06-28 01:45:00,
2013-06-27 20:56:00,79.0,67.0,28.34,North,353,0.0,5.0,66,0.00,,,0.00,,2013-06-28 01:56:00,
2013-06-27 21:04:00,78.0,67.0,28.34,NW,318,3.0,5.0,68,0.00,,,0.00,,2013-06-28 02:04:00,
2013-06-27 21:35:00,78.0,66.0,28.37,NNW,328,5.0,7.0,67,0.00,,,0.00,,2013-06-28 02:35:00,
2013-06-27 21:47:00,78.0,66.0,28.37,NNE,12,3.0,7.0,67,0.00,,,0.00,,2013-06-28 02:47:00,
2013-06-27 22:04:00,78.0,66.0,28.37,NNE,12,3.0,7.0,67,0.00,,,0.00,,2013-06-28 03:04:00,
2013-06-27 22:14:00,77.0,65.0,28.40,North,357,3.0,8.0,67,0.00,,,0.00,,2013-06-28 03:14:00,
2013-06-27 22:25:00,77.0,66.0,28.40,North,11,0.0,2.0,68,0.00,,,0.00,,2013-06-28 03:25:00,
2013-06-27 22:36:00,76.0,65.0,28.40,North,9,0.0,5.0,68,0.00,,,0.00,,2013-06-28 03:36:00,
2013-06-27 22:44:00,76.0,65.0,28.40,North,9,0.0,5.0,68,0.00,,,0.00,,2013-06-28 03:44:00,
2013-06-27 22:54:00,76.0,65.0,28.43,WSW,249,2.0,5.0,68,0.00,,,0.00,,2013-06-28 03:54:00,
2013-06-27 23:02:00,76.0,65.0,28.43,WSW,250,0.0,5.0,69,0.00,,,0.00,,2013-06-28 04:02:00,
2013-06-27 23:11:00,76.0,65.0,28.43,WSW,250,0.0,5.0,70,0.00,,,0.00,,2013-06-28 04:11:00,
2013-06-27 23:22:00,76.0,65.0,28.43,WSW,257,0.0,0.0,70,0.00,,,0.00,,2013-06-28 04:22:00,
2013-06-27 23:33:00,76.0,65.0,28.43,WSW,257,0.0,0.0,70,0.00,,,0.00,,2013-06-28 04:33:00,
2013-06-27 23:43:00,75.0,65.0,28.43,SW,233,3.0,5.0,71,0.00,,,0.00,,2013-06-28 04:43:00,
2013-06-27 23:53:00,75.0,65.0,28.43,SW,234,3.0,5.0,72,0.00,,,0.00,,2013-06-28 04:53:00,